Regional Weather Roundup
Issued by NWS Sterling, VA

Home | Current Version | Previous Version | Graphics & Text | Print | Product List | Glossary On
Versions: 1 2 3 4 5 6 7 8 9 10 11 12 13 14 15 16 17 18 19 20 21 22 23 24 25 26 27 28 29 30 31 32 33 34 35 36 37 38 39 40 41 42 43 44 45 46 47 48 49 50
000
ASUS41 KLWX 220410
RWRLWX

REGIONAL WEATHER ROUNDUP
NATIONAL WEATHER SERVICE BALTIMORE MD/WASHINGTON DC
1200 AM EDT MON SEP 22 2014

Note: "FAIR" indicates few or no clouds below 12,000 feet
with no significant weather and/or obstructions to visibility.
 TC=TEMPERATURE CELSIUS

 * =Non NWS site. Station does not report precipitation (e.g. rain,
    snow, etc.), thunder, or fog.

DCZ001-MDZ009-015-VAZ040>042-051-053>054-220500-
WASHINGTON METRO

CITY           SKY/WX    TMP DP  RH WIND       PRES   REMARKS
WASHINGTON NAT MOCLDY    79  55  43 NW16G25   29.75R
DULLES         PTCLDY    72  53  51 NW14G22   29.77R
ANDREWS AFB    MOCLDY    76  59  55 NW17G25   29.74R
QUANTICO       PTCLDY    74  56  53 NW10      29.76R
COLLEGE PARK*  MOCLDY    77  59  53 W10       29.73R
LEESBURG*      PTCLDY    72  55  56 NW16G25   29.78R
MANASSAS*      PTCLDY    73  52  46 NW16G25   29.77R
GAITHERSBURG*  PTCLDY    72  52  49 NW16G22   29.80R

$$

MDZ006>007-011-014-220500-
BALTIMORE METRO

CITY           SKY/WX    TMP DP  RH WIND       PRES   REMARKS
BWI AIRPORT    MOCLDY    75  52  44 W16G28    29.72R
MD SCIENCE CTR   N/A     76  53  44 MISG      29.73R
MARTIN STATE   PTCLDY    75  63  64 W14       29.71R
ANNAPOLIS        N/A     73  62  68 W7        29.71R
FORT MEADE*    CLOUDY    64  63  94 NW8       29.75R

$$

MDZ012-015-019>023-220500-
MARYLAND EASTERN SHORE

CITY           SKY/WX    TMP DP  RH WIND       PRES   REMARKS
OCEAN CITY     MOCLDY    73  65  75 SW9       29.70S
SALISBURY      MOCLDY    77  67  71 SW12      29.70S
BAY BRIDGE AP*   N/A     72  64  78 W6        29.71R
CAMBRIDGE*     CLEAR     73  64  73 W6        29.70R
EASTON*        CLEAR     75  66  73 CALM      29.74R

$$

MDZ017>025-220500-
SOUTHERN MARYLAND

CITY           SKY/WX    TMP DP  RH WIND       PRES   REMARKS
PATUXENT RIVER CLEAR     75  64  68 W9        29.73R
ST INIGOES     CLEAR     75  64  68 W9        29.73R
LEONARDTOWN*   MOCLDY    73  63  68 W7        29.75R

$$

MDZ003>005-220500-
NORTH CENTRAL MARYLAND

CITY           SKY/WX    TMP DP  RH WIND       PRES   REMARKS
FREDERICK*     PTCLDY    73  52  46 W17G23    29.78R
HAGERSTOWN APT CLEAR     67  48  50 NW8G16    29.78R
WESTMINSTER*   PTCLDY    70  55  60 W13       29.76R

$$

MDZ501>502-220500-
WESTERN MARYLAND

CITY           SKY/WX    TMP DP  RH WIND       PRES   REMARKS
OAKLAND*       PTCLDY    52  46  82 W12G20    29.90S
CUMBERLAND*    CLEAR     64  46  52 W14G21    29.87R

$$

VAZ025>031-220500-
SHENANDOAH VALLEY

CITY           SKY/WX    TMP DP  RH WIND       PRES   REMARKS
WINCHESTER*    CLEAR     68  46  45 W7        29.82R
STAUNTON*      PTCLDY    65  49  57 NW6       29.88R

$$

WVZ021-048>050-054>055-220500-
EASTERN WEST VIRGINIA PANHANDLE

CITY           SKY/WX    TMP DP  RH WIND       PRES   REMARKS
MARTINSBURG    CLEAR     70  43  37 W15G21    29.81R
PETERSBURG*    PTCLDY    66  44  44 NW5       29.88R

$$

VAZ036>039-050-220500-
CENTRAL FOOTHILLS

CITY           SKY/WX    TMP DP  RH WIND       PRES   REMARKS
CHARLOTTESVILL PTCLDY    73  53  49 W6        29.81R
ORANGE*        PTCLDY    73  57  56 W7        29.80R

$$

VAZ055>057-220500-
NORTH AND CENTRAL PIEDMONT

CITY           SKY/WX    TMP DP  RH WIND       PRES   REMARKS
FREDERICKSBRG* MOCLDY    75  64  67 NW6       29.76R
STAFFORD*      MOCLDY    67  67 100 CALM      29.81R

$$

NCZ024-NYZ072-PAZ021-071-VAZ022-071-220500-
OTHER REGIONAL OBSERVATIONS

CITY           SKY/WX    TMP DP  RH WIND       PRES   REMARKS
NEW YORK CITY  MOCLDY    72  65  78 VRB5      29.64F
PHILADELPHIA   CLOUDY    73  62  68 SW9       29.67F
PITTSBURGH     LGT RAIN  57  53  86 NW17G25   29.88R
ROANOKE        PTCLDY    66  51  58 NW10      29.93R
RICHMOND       PTCLDY    78  64  61 W13       29.77R
RALEIGH        HVY RAIN  72  67  84 SW15G21   29.87S FOG

$$

ANZ530>537-220500-
MARINE OBSERVATIONS

STATION/POSITION TIME  TEMP    WIND        PRES
                       AIR SEA DIR/SP/G
                 (UTC) (F)     (DEG/KT/KT) (MB)
THOMAS PT LIGHT  0400   74 74  300/ 13/ 16 1007.1R
BALT KEY BRIDGE  0400   77     280/ 17/ 22 1005.9R
COVE POINT       0400   75     280/  8/ 11 1006.2R
LEWISETTA        0400   75 75  290/  7/  9 1006.6R
SOLOMONS ISLAND  0400      76                N/A
PINEY POINT      0400          290/ 12/ 14   N/A

$$




USA.gov is the U.S. government's official web portal to all federal, state and local government web resources and services.